Time,TemperatureF,DewpointF,PressureIn,WindDirection,WindDirectionDegrees,WindSpeedMPH,WindSpeedGustMPH,Humidity,HourlyPrecipIn,Conditions,Clouds,dailyrainin,SoftwareType,DateUTC
2013-07-01 01:53:00,62.0,56.4,29.79,NE,38,0.0,0.0,82,0.00,,,0.00,WeatherTracker,2013-07-01 08:53:00,
2013-07-01 02:00:00,62.0,56.8,29.79,NE,38,0.0,0.0,83,0.00,,,0.00,WeatherTracker,2013-07-01 09:00:00,
2013-07-01 02:10:00,61.8,56.6,29.78,NE,38,0.0,0.0,83,0.00,,,0.00,WeatherTracker,2013-07-01 09:10:00,
2013-07-01 02:20:00,61.7,56.5,29.78,NE,38,0.0,0.0,83,0.00,,,0.00,WeatherTracker,2013-07-01 09:20:00,
2013-07-01 02:30:00,61.5,56.6,29.79,NE,38,0.0,0.0,84,0.00,,,0.00,WeatherTracker,2013-07-01 09:30:00,
2013-07-01 02:40:00,61.4,56.5,29.78,NE,38,0.0,0.0,84,0.00,,,0.00,WeatherTracker,2013-07-01 09:40:00,
2013-07-01 02:50:00,61.2,56.3,29.78,NE,38,0.0,0.0,84,0.00,,,0.00,WeatherTracker,2013-07-01 09:50:00,
2013-07-01 03:00:00,61.1,56.6,29.78,NE,38,0.0,0.0,85,0.00,,,0.00,WeatherTracker,2013-07-01 10:00:00,
2013-07-01 03:10:00,61.0,56.5,29.78,NE,38,0.0,0.0,85,0.00,,,0.00,WeatherTracker,2013-07-01 10:10:00,
2013-07-01 03:20:00,61.0,56.8,29.78,NE,38,0.0,0.0,86,0.00,,,0.00,WeatherTracker,2013-07-01 10:20:00,
2013-07-01 03:30:00,61.0,56.8,29.78,NE,38,0.0,0.0,86,0.00,,,0.00,WeatherTracker,2013-07-01 10:30:00,
2013-07-01 03:40:00,61.1,56.9,29.78,NE,38,0.0,0.0,86,0.00,,,0.00,WeatherTracker,2013-07-01 10:40:00,
2013-07-01 03:50:00,61.2,57.3,29.78,NE,38,0.0,0.0,87,0.00,,,0.00,WeatherTracker,2013-07-01 10:50:00,
2013-07-01 04:00:00,61.3,57.4,29.78,NE,38,0.0,0.0,87,0.00,,,0.00,WeatherTracker,2013-07-01 11:00:00,
2013-07-01 04:10:00,61.4,57.5,29.78,NE,38,0.0,0.0,87,0.00,,,0.00,WeatherTracker,2013-07-01 11:10:00,
2013-07-01 04:20:00,61.5,57.6,29.78,NE,38,0.0,0.0,87,0.00,,,0.00,WeatherTracker,2013-07-01 11:20:00,
2013-07-01 04:30:00,61.6,57.7,29.78,NE,38,0.0,0.0,87,0.00,,,0.00,WeatherTracker,2013-07-01 11:30:00,
2013-07-01 04:40:00,61.6,57.7,29.79,NE,38,0.0,0.0,87,0.00,,,0.00,WeatherTracker,2013-07-01 11:40:00,
2013-07-01 04:50:00,61.6,57.4,29.79,NE,38,0.0,0.0,86,0.00,,,0.00,WeatherTracker,2013-07-01 11:50:00,
2013-07-01 05:00:00,61.5,57.3,29.79,NE,38,0.0,0.0,86,0.00,,,0.00,WeatherTracker,2013-07-01 12:00:00,
2013-07-01 05:10:00,61.4,57.2,29.78,NE,38,0.0,0.0,86,0.00,,,0.00,WeatherTracker,2013-07-01 12:10:00,
2013-07-01 05:20:00,61.2,57.0,29.78,NE,38,0.0,0.0,86,0.00,,,0.00,WeatherTracker,2013-07-01 12:20:00,
2013-07-01 05:30:00,61.1,56.9,29.78,NE,38,0.0,0.0,86,0.00,,,0.00,WeatherTracker,2013-07-01 12:30:00,
2013-07-01 05:40:00,60.9,56.7,29.78,NE,38,0.0,0.0,86,0.00,,,0.00,WeatherTracker,2013-07-01 12:40:00,
2013-07-01 05:50:00,60.7,56.8,29.79,NE,38,0.0,0.0,87,0.00,,,0.00,WeatherTracker,2013-07-01 12:50:00,
2013-07-01 06:00:00,60.5,56.6,29.78,NE,38,0.0,0.0,87,0.00,,,0.00,WeatherTracker,2013-07-01 13:00:00,
2013-07-01 06:10:00,60.4,56.5,29.78,NE,38,0.0,0.0,87,0.00,,,0.00,WeatherTracker,2013-07-01 13:10:00,
2013-07-01 06:20:00,60.2,56.3,29.78,NE,38,0.0,0.0,87,0.00,,,0.00,WeatherTracker,2013-07-01 13:20:00,
2013-07-01 06:30:00,60.2,56.6,29.78,NE,38,0.0,0.0,88,0.00,,,0.00,WeatherTracker,2013-07-01 13:30:00,
2013-07-01 06:40:00,60.1,56.5,29.77,NE,38,0.0,0.0,88,0.00,,,0.00,WeatherTracker,2013-07-01 13:40:00,
2013-07-01 06:50:00,60.2,56.9,29.77,NE,38,0.0,0.0,89,0.00,,,0.00,WeatherTracker,2013-07-01 13:50:00,
2013-07-01 07:00:00,60.4,57.1,29.78,NE,38,0.0,0.0,89,0.00,,,0.00,WeatherTracker,2013-07-01 14:00:00,
2013-07-01 07:10:00,60.5,57.2,29.79,NE,38,0.0,0.0,89,0.00,,,0.00,WeatherTracker,2013-07-01 14:10:00,
2013-07-01 07:20:00,60.8,57.8,29.79,NE,38,0.0,0.0,90,0.00,,,0.00,WeatherTracker,2013-07-01 14:20:00,
2013-07-01 07:30:00,61.2,58.5,29.79,NE,38,0.0,0.0,91,0.00,,,0.00,WeatherTracker,2013-07-01 14:30:00,
2013-07-01 07:40:00,61.6,58.9,29.79,NE,38,0.0,0.0,91,0.00,,,0.00,WeatherTracker,2013-07-01 14:40:00,
2013-07-01 07:50:00,62.1,59.4,29.79,NE,38,0.0,0.0,91,0.00,,,0.00,WeatherTracker,2013-07-01 14:50:00,
2013-07-01 08:00:00,62.5,59.8,29.79,NE,38,0.0,0.0,91,0.00,,,0.00,WeatherTracker,2013-07-01 15:00:00,
2013-07-01 08:10:00,62.8,60.1,29.79,NE,38,0.0,0.0,91,0.00,,,0.00,WeatherTracker,2013-07-01 15:10:00,
2013-07-01 08:20:00,63.2,60.5,29.79,NE,38,0.0,0.0,91,0.00,,,0.00,WeatherTracker,2013-07-01 15:20:00,
2013-07-01 08:30:00,63.6,60.6,29.78,NE,38,0.0,0.0,90,0.00,,,0.00,WeatherTracker,2013-07-01 15:30:00,
2013-07-01 08:40:00,64.0,60.7,29.79,NE,38,0.0,0.0,89,0.00,,,0.00,WeatherTracker,2013-07-01 15:40:00,
2013-07-01 08:50:00,64.5,60.9,29.79,NE,38,0.0,0.0,88,0.00,,,0.00,WeatherTracker,2013-07-01 15:50:00,
2013-07-01 09:00:00,65.1,61.1,29.78,NE,38,0.0,0.0,87,0.00,,,0.00,WeatherTracker,2013-07-01 16:00:00,
2013-07-01 09:10:00,65.8,61.5,29.78,NE,38,0.0,0.0,86,0.00,,,0.00,WeatherTracker,2013-07-01 16:10:00,
2013-07-01 09:20:00,66.6,61.6,29.78,NE,38,0.0,0.0,84,0.00,,,0.00,WeatherTracker,2013-07-01 16:20:00,
2013-07-01 09:30:00,67.5,62.5,29.78,NE,38,0.0,0.0,84,0.00,,,0.00,WeatherTracker,2013-07-01 16:30:00,
2013-07-01 09:40:00,68.6,63.2,29.79,NE,38,0.0,0.0,83,0.00,,,0.00,WeatherTracker,2013-07-01 16:40:00,
2013-07-01 09:50:00,70.3,63.8,29.79,NE,38,0.0,0.0,80,0.00,,,0.00,WeatherTracker,2013-07-01 16:50:00,
2013-07-01 10:00:00,72.3,63.5,29.78,NE,38,0.0,0.0,74,0.00,,,0.00,WeatherTracker,2013-07-01 17:00:00,
2013-07-01 10:10:00,74.3,64.3,29.78,NE,38,0.0,0.0,71,0.00,,,0.00,WeatherTracker,2013-07-01 17:10:00,
2013-07-01 10:20:00,75.8,64.0,29.78,NE,38,0.0,0.0,67,0.00,,,0.00,WeatherTracker,2013-07-01 17:20:00,
2013-07-01 10:30:00,76.6,64.8,29.78,NE,38,0.0,0.0,67,0.00,,,0.00,WeatherTracker,2013-07-01 17:30:00,
2013-07-01 10:40:00,77.7,65.0,29.78,NE,38,0.0,0.0,65,0.00,,,0.00,WeatherTracker,2013-07-01 17:40:00,
2013-07-01 10:50:00,78.7,65.0,29.79,NE,38,0.0,0.0,63,0.00,,,0.00,WeatherTracker,2013-07-01 17:50:00,
2013-07-01 11:00:00,79.6,65.4,29.78,NE,38,0.0,0.0,62,0.00,,,0.00,WeatherTracker,2013-07-01 18:00:00,
2013-07-01 11:10:00,80.8,66.1,29.79,NE,38,0.0,0.0,61,0.00,,,0.00,WeatherTracker,2013-07-01 18:10:00,
2013-07-01 11:20:00,81.7,65.5,29.78,NE,38,0.0,0.0,58,0.00,,,0.00,WeatherTracker,2013-07-01 18:20:00,
2013-07-01 11:30:00,83.0,66.7,29.78,NE,38,0.0,0.0,58,0.00,,,0.00,WeatherTracker,2013-07-01 18:30:00,
2013-07-01 11:40:00,84.1,66.2,29.78,NE,38,0.0,0.0,55,0.00,,,0.00,WeatherTracker,2013-07-01 18:40:00,
2013-07-01 11:50:00,85.1,64.9,29.77,NE,38,0.0,0.0,51,0.00,,,0.00,WeatherTracker,2013-07-01 18:50:00,
2013-07-01 12:00:00,86.0,64.0,29.77,NE,38,0.0,0.0,48,0.00,,,0.00,WeatherTracker,2013-07-01 19:00:00,
2013-07-01 12:10:00,86.9,67.7,29.78,NE,38,0.0,0.0,53,0.00,,,0.00,WeatherTracker,2013-07-01 19:10:00,
2013-07-01 12:20:00,86.8,66.5,29.78,NE,38,0.0,0.0,51,0.00,,,0.00,WeatherTracker,2013-07-01 19:20:00,
2013-07-01 12:30:00,86.3,63.7,29.79,NE,38,0.0,0.0,47,0.00,,,0.00,WeatherTracker,2013-07-01 19:30:00,
2013-07-01 12:40:00,86.4,62.5,29.79,NE,38,0.0,0.0,45,0.00,,,0.00,WeatherTracker,2013-07-01 19:40:00,
2013-07-01 12:50:00,86.6,63.3,29.78,NE,39,0.0,0.0,46,0.00,,,0.00,WeatherTracker,2013-07-01 19:50:00,
2013-07-01 13:00:00,87.0,64.3,29.79,NE,39,0.0,0.0,47,0.00,,,0.00,WeatherTracker,2013-07-01 20:00:00,
2013-07-01 13:10:00,87.1,63.1,29.79,NE,38,0.0,0.0,45,0.00,,,0.00,WeatherTracker,2013-07-01 20:10:00,
2013-07-01 13:20:00,87.4,64.0,29.79,NE,39,0.0,0.0,46,0.00,,,0.00,WeatherTracker,2013-07-01 20:20:00,
2013-07-01 13:30:00,87.4,64.7,29.79,NE,53,0.0,0.0,47,0.00,,,0.00,WeatherTracker,2013-07-01 20:30:00,
2013-07-01 13:40:00,87.1,63.8,29.79,NE,53,0.0,0.0,46,0.00,,,0.00,WeatherTracker,2013-07-01 20:40:00,
2013-07-01 13:50:00,87.1,64.4,29.79,NE,53,0.0,0.0,47,0.00,,,0.00,WeatherTracker,2013-07-01 20:50:00,
2013-07-01 14:00:00,87.3,64.0,29.78,NE,55,0.0,0.0,46,0.00,,,0.00,WeatherTracker,2013-07-01 21:00:00,
2013-07-01 14:10:00,87.9,64.5,29.78,NE,55,0.0,0.0,46,0.00,,,0.00,WeatherTracker,2013-07-01 21:10:00,
2013-07-01 14:20:00,88.4,63.7,29.78,NE,56,0.0,0.0,44,0.00,,,0.00,WeatherTracker,2013-07-01 21:20:00,
2013-07-01 14:30:00,88.1,65.3,29.79,ENE,57,0.0,0.0,47,0.00,,,0.00,WeatherTracker,2013-07-01 21:30:00,
2013-07-01 14:40:00,88.4,64.3,29.78,ENE,57,0.0,0.0,45,0.00,,,0.00,WeatherTracker,2013-07-01 21:40:00,
2013-07-01 14:50:00,88.6,64.5,29.78,NE,56,0.0,0.0,45,0.00,,,0.00,WeatherTracker,2013-07-01 21:50:00,
2013-07-01 15:00:00,88.6,63.2,29.79,ENE,59,0.0,0.0,43,0.00,,,0.00,WeatherTracker,2013-07-01 22:00:00,
2013-07-01 15:10:00,87.8,63.1,29.78,ENE,57,0.0,0.0,44,0.00,,,0.00,WeatherTracker,2013-07-01 22:10:00,
2013-07-01 15:20:00,87.2,62.6,29.79,ENE,57,0.0,0.0,44,0.00,,,0.00,WeatherTracker,2013-07-01 22:20:00,
2013-07-01 15:30:00,87.0,63.1,29.79,ENE,57,0.0,0.0,45,0.00,,,0.00,WeatherTracker,2013-07-01 22:30:00,
2013-07-01 15:40:00,86.5,64.4,29.78,ENE,64,0.0,0.0,48,0.00,,,0.00,WeatherTracker,2013-07-01 22:40:00,
2013-07-01 15:50:00,86.5,64.4,29.78,ENE,64,0.0,0.0,48,0.00,,,0.00,WeatherTracker,2013-07-01 22:50:00,
2013-07-01 16:00:00,87.0,64.3,29.78,ENE,64,0.0,0.0,47,0.00,,,0.00,WeatherTracker,2013-07-01 23:00:00,
2013-07-01 16:10:00,86.9,66.0,29.78,ENE,64,0.0,0.0,50,0.00,,,0.00,WeatherTracker,2013-07-01 23:10:00,
2013-07-01 16:20:00,85.3,66.2,29.78,ENE,64,0.0,0.0,53,0.00,,,0.00,WeatherTracker,2013-07-01 23:20:00,
2013-07-01 16:30:00,84.5,66.5,29.78,ENE,61,0.0,0.0,55,0.00,,,0.00,WeatherTracker,2013-07-01 23:30:00,
2013-07-01 16:40:00,84.1,65.6,29.78,ENE,61,0.0,0.0,54,0.00,,,0.00,WeatherTracker,2013-07-01 23:40:00,
2013-07-01 16:50:00,83.7,64.2,29.77,ENE,61,0.0,0.0,52,0.00,,,0.00,WeatherTracker,2013-07-01 23:50:00,
2013-07-01 17:00:00,83.1,63.1,29.77,ENE,61,0.0,0.0,51,0.00,,,0.00,WeatherTracker,2013-07-02 00:00:00,
2013-07-01 17:10:00,82.5,62.5,29.77,ENE,61,0.0,0.0,51,0.00,,,0.00,WeatherTracker,2013-07-02 00:10:00,
2013-07-01 17:20:00,81.9,63.1,29.77,ENE,60,0.0,0.0,53,0.00,,,0.00,WeatherTracker,2013-07-02 00:20:00,
2013-07-01 17:30:00,81.4,62.6,29.77,ENE,60,0.0,0.0,53,0.00,,,0.00,WeatherTracker,2013-07-02 00:30:00,
2013-07-01 17:40:00,80.7,61.4,29.77,ENE,60,0.0,0.0,52,0.00,,,0.00,WeatherTracker,2013-07-02 00:40:00,
2013-07-01 17:50:00,79.9,61.7,29.77,ENE,60,0.0,0.0,54,0.00,,,0.00,WeatherTracker,2013-07-02 00:50:00,
2013-07-01 18:00:00,79.3,61.7,29.77,ENE,61,0.0,0.0,55,0.00,,,0.00,WeatherTracker,2013-07-02 01:00:00,
2013-07-01 18:10:00,78.5,59.9,29.78,NE,55,0.0,0.0,53,0.00,,,0.00,WeatherTracker,2013-07-02 01:10:00,
2013-07-01 18:20:00,77.2,60.3,29.77,NE,55,0.0,0.0,56,0.00,,,0.00,WeatherTracker,2013-07-02 01:20:00,
2013-07-01 18:30:00,76.6,59.7,29.77,ENE,63,0.0,0.0,56,0.00,,,0.00,WeatherTracker,2013-07-02 01:30:00,
2013-07-01 18:40:00,75.8,60.4,29.77,ENE,63,0.0,0.0,59,0.00,,,0.00,WeatherTracker,2013-07-02 01:40:00,
2013-07-01 18:50:00,75.4,60.5,29.77,ENE,63,0.0,0.0,60,0.00,,,0.00,WeatherTracker,2013-07-02 01:50:00,
2013-07-01 19:00:00,74.8,60.4,29.78,ENE,63,0.0,0.0,61,0.00,,,0.00,WeatherTracker,2013-07-02 02:00:00,
2013-07-01 19:10:00,74.5,60.2,29.78,ENE,63,0.0,0.0,61,0.00,,,0.00,WeatherTracker,2013-07-02 02:10:00,
2013-07-01 19:20:00,73.8,59.5,29.78,ENE,63,0.0,0.0,61,0.00,,,0.00,WeatherTracker,2013-07-02 02:20:00,
2013-07-01 19:30:00,72.8,59.9,29.78,NE,55,0.0,0.0,64,0.00,,,0.00,WeatherTracker,2013-07-02 02:30:00,
2013-07-01 19:40:00,72.2,59.3,29.79,NE,55,0.0,0.0,64,0.00,,,0.00,WeatherTracker,2013-07-02 02:40:00,
2013-07-01 19:50:00,71.9,59.0,29.79,NE,55,0.0,0.0,64,0.00,,,0.00,WeatherTracker,2013-07-02 02:50:00,
2013-07-01 20:00:00,71.6,59.2,29.79,NE,55,0.0,0.0,65,0.00,,,0.00,WeatherTracker,2013-07-02 03:00:00,
2013-07-01 20:10:00,71.3,59.3,29.79,NE,55,0.0,0.0,66,0.00,,,0.00,WeatherTracker,2013-07-02 03:10:00,
2013-07-01 20:20:00,71.0,59.9,29.79,NE,55,0.0,0.0,68,0.00,,,0.00,WeatherTracker,2013-07-02 03:20:00,
2013-07-01 20:30:00,70.8,59.7,29.78,NE,55,0.0,0.0,68,0.00,,,0.00,WeatherTracker,2013-07-02 03:30:00,
2013-07-01 20:40:00,70.5,59.8,29.77,NE,55,0.0,0.0,69,0.00,,,0.00,WeatherTracker,2013-07-02 03:40:00,
2013-07-01 20:50:00,70.2,59.5,29.77,NE,55,0.0,0.0,69,0.00,,,0.00,WeatherTracker,2013-07-02 03:50:00,
2013-07-01 21:00:00,69.9,58.8,29.78,NE,55,0.0,0.0,68,0.00,,,0.00,WeatherTracker,2013-07-02 04:00:00,
2013-07-01 21:10:00,69.6,59.0,29.79,NE,55,0.0,0.0,69,0.00,,,0.00,WeatherTracker,2013-07-02 04:10:00,
2013-07-01 21:20:00,69.5,59.3,29.79,NE,55,0.0,0.0,70,0.00,,,0.00,WeatherTracker,2013-07-02 04:20:00,
2013-07-01 21:30:00,69.3,59.9,29.79,NE,55,0.0,0.0,72,0.00,,,0.00,WeatherTracker,2013-07-02 04:30:00,
2013-07-01 21:40:00,69.0,60.0,29.78,NE,55,0.0,0.0,73,0.00,,,0.00,WeatherTracker,2013-07-02 04:40:00,
2013-07-01 21:50:00,68.8,60.2,29.79,NE,55,0.0,0.0,74,0.00,,,0.00,WeatherTracker,2013-07-02 04:50:00,
2013-07-01 22:00:00,68.7,59.7,29.79,NE,55,0.0,0.0,73,0.00,,,0.00,WeatherTracker,2013-07-02 05:00:00,
2013-07-01 22:10:00,68.6,59.6,29.79,NE,55,0.0,0.0,73,0.00,,,0.00,WeatherTracker,2013-07-02 05:10:00,
2013-07-01 22:20:00,68.6,59.6,29.80,NE,55,0.0,0.0,73,0.00,,,0.00,WeatherTracker,2013-07-02 05:20:00,
2013-07-01 22:30:00,68.7,59.7,29.80,NE,55,0.0,0.0,73,0.00,,,0.00,WeatherTracker,2013-07-02 05:30:00,
2013-07-01 22:40:00,68.6,59.6,29.80,NE,55,0.0,0.0,73,0.00,,,0.00,WeatherTracker,2013-07-02 05:40:00,
2013-07-01 22:50:00,68.6,59.6,29.80,NE,55,0.0,0.0,73,0.00,,,0.00,WeatherTracker,2013-07-02 05:50:00,
2013-07-01 23:00:00,68.4,59.4,29.80,NE,55,0.0,0.0,73,0.00,,,0.00,WeatherTracker,2013-07-02 06:00:00,
2013-07-01 23:10:00,68.1,59.5,29.81,NE,55,0.0,0.0,74,0.00,,,0.00,WeatherTracker,2013-07-02 06:10:00,
2013-07-01 23:20:00,67.9,59.3,29.81,NE,55,0.0,0.0,74,0.00,,,0.00,WeatherTracker,2013-07-02 06:20:00,
2013-07-01 23:30:00,67.6,59.0,29.80,NE,55,0.0,0.0,74,0.00,,,0.00,WeatherTracker,2013-07-02 06:30:00,
2013-07-01 23:40:00,67.5,59.3,29.81,NE,55,0.0,0.0,75,0.00,,,0.00,WeatherTracker,2013-07-02 06:40:00,
2013-07-01 23:50:00,67.2,58.6,29.81,NE,55,0.0,0.0,74,0.00,,,0.00,WeatherTracker,2013-07-02 06:50:00,